Location: Newark
(48.6461°N, 4.3644°W)
Time: 15:37:21
(UTC+00:00)

Explorer 7 - All Passes

Search period start: 19 January 2020 00:00
Search period end: 29 January 2020 00:00
Orbit: 485 x 679 km, 50.3° (Epoch: 19 January)

Date Brightness Start Highest point End Pass type
(mag) Time Alt. Az. Time Alt. Az. Time Alt. Az.
19 Jan - 01:22:42 10° SSW 01:26:06 33° SSE 01:29:35 10° E night (unlit)
19 Jan - 03:02:32 10° WSW 03:06:21 83° N 03:10:19 10° ENE night (unlit)
19 Jan - 04:43:08 10° WNW 04:47:01 71° N 04:51:06 10° E visible
19 Jan - 06:23:36 10° WNW 06:27:31 54° SSW 06:31:39 10° SE visible
19 Jan - 08:05:05 10° WSW 08:07:27 15° SW 08:09:52 10° S daylight
19 Jan - 23:50:13 10° SSE 23:51:11 11° SE 23:52:09 10° ESE night (unlit)
20 Jan - 01:27:17 10° SW 01:30:54 47° SSE 01:34:37 10° ENE night (unlit)
20 Jan - 03:07:31 10° W 03:11:19 72° N 03:15:16 10° ENE night (unlit)
20 Jan - 04:48:05 10° WNW 04:51:59 80° NNE 04:56:06 10° E visible
20 Jan - 06:28:37 10° W 06:32:21 39° SSW 06:36:18 10° SE visible
20 Jan - 23:53:21 10° S 23:55:51 17° SE 23:58:21 10° E night (unlit)
21 Jan - 01:32:04 10° WSW 01:35:47 66° SSE 01:39:36 10° ENE night (unlit)
21 Jan - 03:12:31 10° W 03:16:18 67° N 03:20:16 10° E night (unlit)
21 Jan - 04:53:02 10° WNW 04:56:56 85° SSW 05:01:03 10° ESE visible
21 Jan - 06:33:44 10° W 06:37:09 27° SW 06:40:44 10° SSE visible
21 Jan - 23:57:26 10° SSW 00:00:34 25° SE 00:03:43 10° E night (unlit)
22 Jan - 01:36:55 10° WSW 01:40:41 86° SSE 01:44:33 10° ENE night (unlit)
22 Jan - 03:17:30 10° W 03:21:18 68° N 03:25:16 10° E night (unlit)
22 Jan - 04:57:59 10° WNW 05:01:52 66° SSW 05:05:55 10° ESE visible
22 Jan - 06:39:03 10° W 06:41:54 19° SW 06:44:50 10° S visible
23 Jan - 00:01:52 10° SW 00:05:20 37° SSE 00:08:51 10° E night (unlit)
23 Jan - 01:41:52 10° W 01:45:39 79° NNW 01:49:30 10° ENE night (unlit)
23 Jan - 03:22:29 10° WNW 03:26:17 73° N 03:30:16 10° E night (unlit)
23 Jan - 05:02:58 10° WNW 05:06:44 48° SSW 05:10:41 10° SE visible
23 Jan - 06:44:56 10° WSW 06:46:35 12° SW 06:48:16 10° SSW visible
23 Jan - 22:28:40 10° SSE 22:30:22 13° SE 22:32:03 10° ESE night (unlit)
24 Jan - 00:06:31 10° SW 00:10:11 53° SSE 00:13:53 10° ENE night (unlit)
24 Jan - 01:46:52 10° W 01:50:38 70° N 01:54:28 10° ENE night (unlit)
24 Jan - 03:27:27 10° WNW 03:31:16 84° NNE 03:35:15 10° ESE night (unlit)
24 Jan - 05:08:01 10° W 05:11:33 34° SSW 05:15:16 10° SSE visible
24 Jan - 22:32:17 10° S 22:35:03 19° SE 22:37:48 10° E night (unlit)
25 Jan - 00:11:19 10° WSW 00:15:03 73° SSE 00:18:51 10° ENE night (unlit)
25 Jan - 01:51:52 10° W 01:55:36 67° N 01:59:28 10° E night (unlit)
25 Jan - 03:32:23 10° WNW 03:36:12 79° SSW 03:40:11 10° ESE night (unlit)
25 Jan - 05:13:11 10° W 05:16:20 23° SW 05:19:35 10° SSE visible
25 Jan - 22:36:30 10° SSW 22:39:47 29° SE 22:43:04 10° E night (unlit)
26 Jan - 00:16:13 10° WSW 00:19:59 89° NNW 00:23:48 10° ENE night (unlit)
26 Jan - 01:56:51 10° W 02:00:36 68° N 02:04:28 10° E night (unlit)
26 Jan - 03:37:20 10° WNW 03:41:06 59° SSW 03:45:01 10° SE night (unlit)
26 Jan - 05:18:40 10° W 05:21:03 16° SW 05:23:32 10° S visible
26 Jan - 22:41:01 10° SW 22:44:35 41° SSE 22:48:09 10° E night (unlit)
27 Jan - 00:21:12 10° W 00:24:57 75° N 00:28:45 10° ENE night (unlit)
27 Jan - 02:01:49 10° WNW 02:05:35 76° N 02:09:27 10° E night (unlit)
27 Jan - 03:42:20 10° W 03:45:57 42° SSW 03:49:44 10° SE night (unlit)
27 Jan - 21:07:20 10° S 21:09:32 15° SE 21:11:44 10° ESE night (unlit)
27 Jan - 22:45:43 10° SW 22:49:27 59° SSE 22:53:09 10° ENE night (unlit)
28 Jan - 00:26:11 10° W 00:29:56 68° N 00:33:43 10° E night (unlit)
28 Jan - 02:06:46 10° WNW 02:10:32 89° N 02:14:25 10° ESE night (unlit)
28 Jan - 03:47:25 10° W 03:50:46 29° SW 03:54:14 10° SSE night (unlit)
28 Jan - 21:11:14 10° SSW 21:14:15 22° SE 21:17:14 10° E night (unlit)
28 Jan - 22:50:34 10° WSW 22:54:20 79° SSE 22:58:06 10° ENE night (unlit)
